Reading, PA

12:47 AM EST on January 20, 2018 (GMT -0500)
Reading Regional-Spaatz

Weather History for KRDG - May, 2013

Change the Weather History Date:

Monday, May 6, 2013

  Actual Average Record
Temperature  
Mean Temperature 57 °F 58 °F  
Max Temperature 69 °F 70 °F 91 °F (1949)
Min Temperature 44 °F 47 °F 35 °F (1992)
Degree Days  
Heating Degree Days 8 8  
Month to date heating degree days 49 50  
Since 1 July heating degree days 4894 5248  
Cooling Degree Days 0 1  
Month to date cooling degree days 0 6  
Year to date cooling degree days 15 15  
Growing Degree Days 6 (Base 50)    
Moisture  
Dew Point 47 °F    
Average Humidity 74    
Maximum Humidity 93    
Minimum Humidity 55    
Precipitation  
Precipitation 0.00 in 0.13 in 3.77 in (1989)
Month to date precipitation 0.00 0.72  
Year to date precipitation 9.58 13.50  
Sea Level Pressure  
Sea Level Pressure 30.19 in    
Wind  
Wind Speed 5 mph (East)    
Max Wind Speed 14 mph    
Max Gust Speed 17 mph    
Visibility 10 miles    
Events      
T = Trace of Precipitation, MM = Missing Value Source: NWS Daily Summary

Daily Weather History Graph

Daily Weather History Graph

Search for Another Location

Airport or City:

Trip Planner

Search our weather history database for the weather conditions in past years. The results will help you decide how hot, cold, wet, or windy it might be!

Date:

Astronomy

May. 06, 2013 Rise Set
Actual Time 5:56 AM EDT 8:04 PM EDT
Civil Twilight 5:26 AM EDT 8:34 PM EDT
Nautical Twilight 4:50 AM EDT 9:11 PM EDT
Astronomical Twilight 4:09 AM EDT 9:52 PM EDT
Moon 3:58 AM EDT (5/6) 5:02 PM EDT (5/6)
Length of Visible Light 15h 07m
Length of Day
14h 07m
Waning Crescent, 11% of the Moon is Illuminated
May 6
Waning Crescent
May 9
New
May 18
First Quarter
May 25
Full
May 31
Last Quarter

Hourly Weather History & Observations

Time (EDT) Temp. Windchill Dew Point Humidity Pressure Visibility Wind Dir Wind Speed Gust Speed Precip Events Conditions
12:54 AM 50.0 °F - 41.0 °F 71% 30.22 in 10.0 mi NE 3.5 mph - N/A   Clear
1:54 AM 48.9 °F - 39.9 °F 71% 30.22 in 10.0 mi East 6.9 mph - N/A   Clear
2:54 AM 46.9 °F - 39.9 °F 77% 30.21 in 10.0 mi East 4.6 mph - N/A   Clear
3:54 AM 45.0 °F 43.5 °F 39.9 °F 82% 30.21 in 10.0 mi East 3.5 mph - N/A   Clear
4:26 AM 44.6 °F 43.1 °F 39.2 °F 81% 30.19 in 10.0 mi NE 3.5 mph - N/A   Mostly Cloudy
4:54 AM 45.0 °F 43.5 °F 41.0 °F 86% 30.21 in 10.0 mi East 3.5 mph - N/A   Overcast
5:08 AM 46.4 °F 44.3 °F 41.0 °F 81% 30.20 in 10.0 mi East 4.6 mph - N/A   Overcast
5:42 AM 46.4 °F - 42.8 °F 87% 30.21 in 10.0 mi Calm Calm - N/A   Overcast
5:54 AM 46.0 °F - 42.1 °F 86% 30.23 in 10.0 mi Calm Calm - N/A   Overcast
6:54 AM 46.0 °F 44.8 °F 44.1 °F 93% 30.24 in 6.0 mi NNE 3.5 mph - N/A   Overcast
7:54 AM 46.9 °F - 44.1 °F 90% 30.25 in 10.0 mi East 5.8 mph - N/A   Overcast
8:54 AM 48.9 °F - 45.0 °F 86% 30.25 in 10.0 mi NE 6.9 mph - N/A   Overcast
9:25 AM 50.0 °F - 46.4 °F 87% 30.23 in 10.0 mi East 6.9 mph - N/A   Overcast
9:54 AM 52.0 °F - 46.9 °F 83% 30.25 in 10.0 mi Calm Calm - N/A   Overcast
10:54 AM 54.0 °F - 46.9 °F 77% 30.25 in 10.0 mi East 4.6 mph - N/A   Overcast
11:04 AM 55.4 °F - 46.4 °F 72% 30.23 in 10.0 mi East 6.9 mph - N/A   Overcast
11:54 AM 57.0 °F - 48.0 °F 72% 30.23 in 10.0 mi NE 6.9 mph - N/A   Overcast
12:54 PM 61.0 °F - 50.0 °F 67% 30.21 in 10.0 mi Variable 4.6 mph - N/A   Overcast
1:28 PM 62.6 °F - 48.2 °F 59% 30.18 in 10.0 mi SE 9.2 mph - N/A   Partly Cloudy
1:42 PM 64.4 °F - 51.8 °F 64% 30.18 in 10.0 mi Variable 5.8 mph - N/A   Mostly Cloudy
1:51 PM 64.4 °F - 50.0 °F 59% 30.18 in 10.0 mi Variable 4.6 mph - N/A   Scattered Clouds
1:54 PM 64.9 °F - 50.0 °F 58% 30.19 in 10.0 mi ESE 6.9 mph - N/A   Partly Cloudy
2:54 PM 66.9 °F - 51.1 °F 57% 30.17 in 10.0 mi ENE 8.1 mph - N/A   Scattered Clouds
3:54 PM 68.0 °F - 51.1 °F 55% 30.14 in 10.0 mi Variable 4.6 mph - N/A   Overcast
4:54 PM 68.0 °F - 52.0 °F 56% 30.13 in 10.0 mi SE 8.1 mph - N/A   Overcast
5:54 PM 68.0 °F - 52.0 °F 56% 30.13 in 10.0 mi SE 5.8 mph - N/A   Overcast
6:54 PM 66.9 °F - 51.1 °F 57% 30.12 in 10.0 mi ESE 3.5 mph - N/A   Overcast
7:54 PM 66.9 °F - 51.1 °F 57% 30.13 in 10.0 mi ESE 5.8 mph - N/A   Overcast
8:54 PM 64.9 °F - 51.1 °F 61% 30.14 in 10.0 mi ESE 8.1 mph - N/A   Mostly Cloudy
9:54 PM 62.1 °F - 52.0 °F 70% 30.16 in 10.0 mi ESE 8.1 mph 16.1 mph N/A   Clear
10:54 PM 61.0 °F - 52.0 °F 72% 30.15 in 10.0 mi ESE 6.9 mph - N/A   Clear
11:54 PM 59.0 °F - 51.1 °F 75% 30.14 in 10.0 mi ESE 8.1 mph - N/A   Clear